AKST,Max TemperatureF,Mean TemperatureF,Min TemperatureF,Max Dew PointF,MeanDew PointF,Min DewpointF,Max Humidity, Mean Humidity, Min Humidity, Max Sea Level PressureIn, Mean Sea Level PressureIn, Min Sea Level PressureIn, Max VisibilityMiles, Mean VisibilityMiles, Min VisibilityMiles, Max Wind SpeedMPH, Mean Wind SpeedMPH, Max Gust SpeedMPH,PrecipitationIn, CloudCover, Events, WindDirDegrees
2012-11-1,21,14,7,7,5,1,77,65,55,30.25,30.21,30.17,10,10,6,14,8,24,0.00,0,,3
2012-11-2,14,8,3,3,1,-1,88,77,62,30.16,29.96,29.85,10,10,8,14,5,24,0.00,0,,359
2012-11-3,16,12,7,0,-2,-4,70,59,47,29.96,29.91,29.88,10,10,10,12,9,23,0.00,0,,17
2012-11-4,10,2,-7,-4,-7,-13,83,66,53,30.04,29.99,29.96,10,10,7,10,6,16,0.00,0,,358
2012-11-5,5,-4,-13,-2,-11,-18,83,78,72,30.39,30.23,30.06,10,10,6,6,2,,0.00,0,,291
2012-11-6,0,-9,-18,-7,-15,-24,92,80,70,30.54,30.49,30.41,10,5,1,6,1,,0.00,1,Snow,82
2012-11-7,9,2,-6,0,-5,-11,87,81,67,30.57,30.54,30.49,10,9,5,5,2,,0.00,4,Snow,147
2012-11-8,8,0,-9,5,-6,-15,92,85,77,30.51,30.36,30.14,10,6,0,8,2,,0.00,6,Fog-Snow,15
2012-11-9,16,12,8,14,11,5,93,88,84,30.13,29.90,29.76,9,2,0,8,5,,0.01,8,Fog-Snow,26
2012-11-10,17,12,6,14,12,2,93,89,79,29.84,29.76,29.72,10,4,1,6,4,,0.00,8,Snow,349
2012-11-11,7,-3,-15,2,-8,-19,92,81,66,30.16,30.01,29.85,10,6,0,5,1,,0.00,6,Fog-Snow,330
2012-11-12,-9,-16,-22,-13,-22,-28,84,77,69,30.31,30.26,30.14,10,5,0,4,1,,0.00,4,,201
2012-11-13,3,-10,-22,1,-17,-28,88,80,69,30.30,30.13,29.81,10,10,7,8,2,,0.00,1,Snow,352
2012-11-14,10,6,1,3,0,-5,88,77,66,29.92,29.77,29.71,10,10,10,12,4,20,0.00,1,,4
2012-11-15,6,-2,-13,-5,-8,-18,83,69,56,30.27,30.13,29.95,10,10,1,15,8,21,0.00,0,,348
2012-11-16,-6,-16,-29,-11,-20,-35,84,78,71,30.30,30.26,30.17,10,9,2,7,2,,0.00,0,,276
2012-11-17,1,-16,-32,-7,-11,-30,83,71,63,30.15,29.94,29.80,10,10,9,16,5,28,0.00,0,Snow,14
2012-11-18,8,4,0,-7,-8,-9,66,60,50,30.06,29.93,29.79,10,10,10,15,10,25,0.00,0,,14
2012-11-19,8,4,0,-4,-6,-8,69,63,55,30.21,30.16,30.08,10,10,10,14,9,26,0.00,0,,13
2012-11-20,0,-4,-9,-9,-11,-14,79,70,63,30.22,30.19,30.17,10,10,10,12,6,21,0.00,0,,5
2012-11-21,-9,-14,-18,-15,-19,-24,82,79,74,30.31,30.24,30.20,10,10,8,6,3,,0.00,0,,285
2012-11-22,1,-8,-17,-4,-13,-23,83,80,74,30.35,30.27,30.14,10,10,10,8,4,16,0.00,0,,337
2012-11-23,10,-2,-14,-2,-6,-19,82,72,58,30.17,30.10,30.06,10,10,10,10,6,20,0.00,0,,3
2012-11-24,-11,-16,-22,-16,-23,-27,82,77,73,30.31,30.22,30.19,10,9,6,4,1,,0.00,0,,94
2012-11-25,-11,-16,-22,-16,-24,-28,79,75,71,30.48,30.42,30.33,10,9,5,4,0,,0.00,0,,105
2012-11-26,-7,-14,-20,-12,-21,-25,82,78,71,30.48,30.34,30.20,10,10,8,5,0,,0.00,0,,305
2012-11-27,-9,-16,-23,-16,-23,-29,81,76,71,30.43,30.32,30.22,10,10,9,5,0,,0.00,0,,320
2012-11-28,-11,-16,-20,-16,-21,-27,86,78,73,30.43,30.39,30.33,10,9,4,6,1,,0.00,0,,259
2012-11-29,-9,-14,-20,-14,-20,-26,86,78,74,30.34,30.30,30.27,10,10,5,6,3,,0.00,0,,272
2012-11-30,-17,-22,-27,-23,-28,-33,78,76,73,30.34,30.25,30.12,10,8,4,5,0,,0.00,0,,98